Tracking 18942 objects as of 18-Jan-2018
HD Live streaming from Space Station
objects crossing your sky now

COSMOS 1241

Track COSMOS 1241 now!
10-day predictions
COSMOS 1241 is classified as:


NORAD ID: 12149
Int'l Code: 1981-006A
Perigee: 985.4 km
Apogee: 1,012.5 km
Inclination: 65.8 °
Period: 104.9 minutes
Semi major axis: 7369 km
RCS: 1.4995 m2 (large)
Launch date: January 21, 1981
Source: Commonwealth of Independent States (former USSR) (CIS)
Launch site: PLESETSK MISSILE AND SPACE COMPLEX (PKMTR)
aabbcc
Your satellite tracking list
Your tracking list is empty




NASA's NSSDC Master Catalog

Two Line Element Set (TLE):
1 12149U 81006A   18017.85560376 -.00000077  00000-0  39326-5 0  9992
2 12149  65.8242 128.4022 0018394 221.5731 275.5665 13.72166284853485
Source of the keplerian elements: AFSPC